DateTimeUTC,F1_A11,F1_S11,BsB_S11,BsG_S11,BsR_S11,BbsB_S11,BbsG_S11,BbsR_S11,BaB_A11,BaG_A11,BaR_A11,Tu_S11,T_S11,Uu_S11,U_S11,P_S11,T1_A11
2021-12-05T10:00:00Z,00000200,21000000,,,,,,,0000.27,0000.04,0000.50,20.4,27.0,,00.0,0633.6,31.2
2021-12-05T10:01:00Z,00000200,21000000,,,,,,,-000.08,0000.05,-000.15,20.4,27.0,,00.0,0633.6,31.2
2021-12-05T10:02:00Z,00000200,21000000,,,,,,,0000.22,0000.14,-000.13,20.4,27.0,,00.0,0633.6,31.2
2021-12-05T10:03:00Z,00000200,61000000,,,,,,,0000.11,0000.45,0000.29,20.4,27.0,,00.0,0633.6,31.2
2021-12-05T10:04:00Z,00000200,41000000,0000.42,-000.19,-000.11,0000.61,-000.35,-000.14,0000.03,-000.23,0000.07,20.4,26.8,00.1,00.1,0634.5,31.1
2021-12-05T10:05:00Z,00000200,01000000,-000.12,0000.27,0000.02,0000.22,-000.03,0000.07,0000.14,0000.05,-000.20,20.4,26.8,00.1,00.1,0634.5,31.1
2021-12-05T10:06:00Z,00000200,01000000,-000.25,0000.09,-000.05,-000.14,-000.01,-000.06,0000.06,0000.04,0000.13,20.4,26.8,00.1,00.1,0634.6,31.1
2021-12-05T10:07:00Z,00000200,01000000,0000.27,0000.40,-000.13,0000.21,-000.26,0000.39,-000.05,0000.01,-000.05,20.4,26.8,00.2,00.1,0634.6,31.1
2021-12-05T10:08:00Z,00000200,01000000,-000.27,-000.07,-000.15,0000.08,0000.08,-000.09,0000.16,0000.03,0000.23,20.4,26.8,00.1,00.1,0634.7,31.1
2021-12-05T10:09:00Z,00000200,01000000,-000.07,0000.08,-000.41,0000.21,0000.15,-000.00,0000.52,0000.14,0000.08,20.5,26.8,00.1,00.1,0634.6,31.2
2021-12-05T10:10:00Z,00000200,01000000,0000.48,0000.02,0000.16,0000.33,-000.43,0000.33,-000.19,0000.36,0000.44,20.6,26.8,00.1,00.1,0634.6,31.2
2021-12-05T10:11:00Z,00000200,01000000,0000.22,0000.42,0000.08,-000.41,-000.04,0000.09,0000.23,0000.15,0000.20,20.7,26.9,00.2,00.1,0634.6,31.2
2021-12-05T10:12:00Z,00000200,01000000,0000.02,-000.16,-000.31,-000.72,0000.06,0000.41,0000.24,0000.26,0000.07,20.7,26.9,00.1,00.1,0634.6,31.2
2021-12-05T10:13:00Z,00000200,01000000,0000.01,0000.02,-000.20,0000.04,-000.08,0000.23,0000.14,0000.45,0000.03,20.7,26.9,00.2,00.1,0634.6,31.2
2021-12-05T10:14:00Z,00000200,01000000,0000.17,-000.00,-000.50,0000.84,0000.13,0000.09,0000.41,-000.24,-000.09,20.7,26.9,00.2,00.1,0634.6,31.2
2021-12-05T10:15:00Z,00000200,01000000,0000.12,0000.04,0000.01,0000.23,0000.07,-000.07,0000.06,0000.53,0000.48,20.7,26.9,00.2,00.1,0634.6,31.2
2021-12-05T10:16:00Z,00000200,01000000,0000.44,-000.01,-000.08,0000.10,-000.30,0000.24,-000.01,-000.12,-000.10,20.6,26.9,00.2,00.2,0634.5,31.2
2021-12-05T10:17:00Z,00000200,01000000,0000.19,-000.18,0000.13,0000.20,-000.18,0000.24,0000.46,0000.36,0000.35,20.6,26.9,00.2,00.1,0634.5,31.2
2021-12-05T10:18:00Z,00000200,01000000,-000.33,0000.08,-000.18,-000.10,-000.29,0000.05,0000.24,-000.15,-000.19,20.5,26.9,00.2,00.2,0634.4,31.2
2021-12-05T10:19:00Z,00000200,01000000,-000.60,-000.01,-000.12,-000.37,-000.13,-000.05,0000.32,0000.56,0000.29,20.5,26.8,00.3,00.2,0634.3,31.1
2021-12-05T10:20:00Z,00000200,01000000,-000.48,0000.01,-000.04,-000.27,0000.14,0000.22,0000.34,0000.25,0000.29,20.5,26.8,00.3,00.2,0634.2,31.1
2021-12-05T10:21:00Z,00000200,01000000,0000.73,0000.21,-000.29,0000.36,-000.24,0000.31,-000.26,0000.10,0000.01,20.5,26.8,00.4,00.3,0634.3,31.1
2021-12-05T10:22:00Z,00000200,01000000,-000.21,-000.11,-000.05,0000.22,0000.27,-000.21,0000.48,0000.06,0000.00,20.5,26.8,00.3,00.2,0634.2,31.1
2021-12-05T10:23:00Z,00000200,01000000,0000.11,-000.28,-000.25,-000.43,-000.23,-000.03,-000.34,-000.23,0000.02,20.5,26.8,00.4,00.3,0634.2,31.2
2021-12-05T10:24:00Z,00000200,01000000,-000.64,0000.16,0000.37,-000.46,0000.06,0000.05,0000.20,0000.18,0000.52,20.5,26.8,00.4,00.3,0634.3,31.1
2021-12-05T10:25:00Z,00000200,01000000,0000.07,-000.21,-000.20,0000.11,-000.27,0000.01,0000.38,0000.17,-000.19,20.6,26.8,00.3,00.2,0634.3,31.1
2021-12-05T10:26:00Z,00000200,01000000,-000.20,0000.15,-000.02,0000.14,-000.01,0000.22,0000.09,0000.05,-000.10,20.6,26.9,00.3,00.2,0634.3,31.2
2021-12-05T10:27:00Z,00000200,01000000,0000.01,-000.15,0000.27,-000.14,0000.08,0000.12,-000.35,0000.09,0000.30,20.7,26.9,00.3,00.2,0634.3,31.2
2021-12-05T10:28:00Z,00000200,01000000,-000.46,-000.16,-000.14,0000.43,-000.43,0000.23,0000.42,0000.64,0000.02,20.7,26.9,00.3,00.2,0634.3,31.2
2021-12-05T10:29:00Z,00000200,01000000,0000.10,0000.07,-000.08,0000.16,-000.04,0000.15,0000.30,-000.27,-000.18,20.7,27.0,00.3,00.2,0634.3,31.2
2021-12-05T10:30:00Z,00000200,01000000,-000.53,0000.03,-000.00,0000.63,0000.04,0000.04,-000.04,0000.04,0000.52,20.7,26.9,00.3,00.2,0634.3,31.2
2021-12-05T10:31:00Z,00000200,01000000,0000.65,-000.06,-000.04,0000.39,0000.05,0000.12,-000.15,0000.10,-000.25,20.6,26.9,00.3,00.2,0634.2,31.2
2021-12-05T10:32:00Z,00000200,01000000,-000.33,-000.17,-000.17,0000.03,-000.24,-000.16,-000.22,0000.09,0000.01,20.6,26.9,00.3,00.2,0634.2,31.1
2021-12-05T10:33:00Z,00000200,01000000,0000.30,-000.25,0000.19,0000.50,-000.16,0000.10,0000.37,-000.22,0000.20,20.6,26.9,00.4,00.3,0634.1,31.1
2021-12-05T10:34:00Z,00000200,01000000,0000.39,-000.15,0000.30,-000.44,-000.23,0000.37,0000.12,0000.44,-000.20,20.5,26.9,00.4,00.2,0634.0,31.1
2021-12-05T10:35:00Z,00000200,01000000,-000.19,-000.18,0000.13,0000.48,-000.01,0000.21,0000.08,-000.11,0000.17,20.5,26.8,00.4,00.3,0634.0,31.1
2021-12-05T10:36:00Z,00000200,01000000,-000.25,0000.07,-000.09,-000.48,0000.40,-000.08,-000.08,-000.20,-000.05,20.5,26.8,00.4,00.3,0633.9,31.1
2021-12-05T10:37:00Z,00000200,01000000,-000.22,-000.01,-000.18,-000.28,0000.20,0000.08,0000.33,0000.13,-000.11,20.5,26.8,00.4,00.3,0633.9,31.1
2021-12-05T10:38:00Z,00000200,01000000,0000.57,0000.16,0000.19,0000.20,0000.11,0000.09,0000.18,0000.35,0000.35,20.5,26.8,00.3,00.2,0634.0,31.1
2021-12-05T10:39:00Z,00000200,01000000,-000.58,0000.57,-000.49,-000.18,-000.02,-000.08,-000.00,-000.14,-000.18,20.5,26.8,00.4,00.3,0634.0,31.2
2021-12-05T10:40:00Z,00000200,01000000,-000.27,0000.29,-000.01,0000.34,-000.20,0000.26,-000.13,-000.06,0000.37,20.6,26.9,00.4,00.2,0633.9,31.2
2021-12-05T10:41:00Z,00000200,01000000,-000.10,0000.16,-000.12,-000.70,0000.13,0000.04,0000.25,0000.55,0000.27,20.7,26.9,00.3,00.2,0633.9,31.2
2021-12-05T10:42:00Z,00000200,01000000,0000.02,-000.05,0000.08,-000.42,0000.02,0000.27,-000.02,-000.21,-000.07,20.7,27.0,00.4,00.3,0633.8,31.2
2021-12-05T10:43:00Z,00000200,01000000,-000.63,-000.27,-000.09,-000.30,0000.06,-000.06,0000.14,0000.25,-000.16,20.8,27.0,00.3,00.2,0633.9,31.2
2021-12-05T10:44:00Z,00000200,01000000,0000.55,0000.04,-000.01,0000.11,-000.04,0000.23,0000.08,-000.16,-000.05,20.9,27.0,00.3,00.2,0633.9,31.2
2021-12-05T10:45:00Z,00000200,01000000,0000.16,-000.09,0000.23,-000.76,-000.20,0000.13,-000.05,0000.39,0000.03,20.9,27.1,00.3,00.2,0633.9,31.2
2021-12-05T10:46:00Z,00000200,01000000,0000.19,-000.13,-000.09,0000.35,-000.53,0000.25,0000.34,0000.24,0000.15,20.9,27.0,00.3,00.2,0633.9,31.2
2021-12-05T10:47:00Z,00000200,01000000,-000.42,-000.39,0000.17,0000.21,-000.19,-000.11,-000.03,-000.03,0000.36,20.8,27.0,00.3,00.2,0633.9,31.2
2021-12-05T10:48:00Z,00000200,01000000,0000.30,0000.01,-000.02,0000.58,0000.05,0000.14,0000.25,-000.19,-000.39,20.8,27.0,00.3,00.2,0633.9,31.2
2021-12-05T10:49:00Z,00000200,01000000,-000.23,0000.15,0000.24,0000.30,-000.18,0000.11,0000.02,0000.18,0000.22,20.7,27.0,00.3,00.2,0633.9,31.2
2021-12-05T10:50:00Z,00000200,01000000,0000.29,0000.03,-000.40,-000.34,-000.06,-000.31,-000.08,-000.02,0000.07,20.7,27.0,00.2,00.2,0633.8,31.2
2021-12-05T10:51:00Z,00000200,01000000,-000.05,0000.11,0000.32,0000.58,0000.13,0000.26,0000.05,0000.16,0000.00,20.7,27.0,00.3,00.2,0633.8,31.2
2021-12-05T10:52:00Z,00000200,01000000,0000.24,0000.09,0000.35,0000.02,-000.23,0000.27,0000.06,-000.19,0000.08,20.7,27.0,00.3,00.2,0633.9,31.1
2021-12-05T10:53:00Z,00000200,01000000,0000.02,-000.13,-000.44,-000.24,0000.19,0000.06,0000.24,0000.29,-000.17,20.7,27.0,00.3,00.2,0633.9,31.2
2021-12-05T10:54:00Z,00000200,01000000,0000.24,0000.13,0000.03,0000.38,-000.20,-000.07,-000.17,0000.15,0000.31,20.8,27.0,00.3,00.2,0633.9,31.2
2021-12-05T10:55:00Z,00000200,01000000,-000.43,-000.49,-000.31,0000.43,-000.09,0000.21,-000.12,-000.28,0000.23,20.8,27.0,00.3,00.2,0633.8,31.2
2021-12-05T10:56:00Z,00000200,01000000,-000.82,0000.08,-000.31,-000.36,-000.31,-000.03,0000.06,0000.28,-000.38,20.9,27.0,00.3,00.2,0633.8,31.2
2021-12-05T10:57:00Z,00000200,41000000,,,,,,,0000.08,-000.25,0000.20,20.9,27.1,00.9,00.6,0633.9,31.2
2021-12-05T10:58:00Z,00000200,61000000,,,,,,,0000.23,0000.17,0000.16,20.6,27.1,00.0,00.0,0632.8,31.2
2021-12-05T10:59:00Z,00000200,21000000,,,,,,,0000.04,0000.41,0000.08,20.5,27.2,,00.0,0632.8,31.2
